Regional Weather Roundup
Issued by NWS

Current Version | Previous Version | Graphics & Text | Print | Product List | Glossary On
Versions: 1 2 3 4 5 6 7 8 9 10 11 12 13 14 15 16 17 18 19 20 21 22 23 24 25 26 27 28 29 30 31 32 33 34 35 36 37 38 39 40 41 42 43 44 45 46 47 48 49 50
000
ASHW40 PHFO 220543
RWRHI

WEATHER ROUNDUP FOR HAWAII
NATIONAL WEATHER SERVICE HONOLULU HI
700 PM HST THU AUG 21 2014

THIS IS AN AUTOMATED REPORT THAT HAS NOT BEEN QUALITY CONTROLLED.

NOTE..."FAIR" INDICATES FEW OR NO CLOUDS BELOW 12,000 FEET WITH NO
SIGNIFICANT WEATHER AND/OR OBSTRUCTIONS TO VISIBILITY.

* - THESE SITES REPORT LIMITED FIELDS

HIZ001>004-220600-
KAUAI-NIIHAU-

CITY           SKY/WX    TMP DP  RH WIND       PRES   REMARKS
LIHUE APT      MOCLDY    79  72  78 NE12      30.03R
PORT ALLEN*      N/A     81 N/A N/A E14G20      N/A
POIPU*           N/A     81 N/A N/A NE8G16      N/A
PRINCEVILLE*   NOT AVBL
KOKOLE POINT*    N/A    N/A N/A N/A MISG        N/A
MOLOAA DAIRY*  NOT AVBL
WAIMEA HTS*      N/A     77  66  69 CALM        N/A
PUU OPAE*        N/A     70  64  83 CALM        N/A
PUU LUA*       NOT AVBL
MAKAHA RIDGE*  NOT AVBL
$$

HIZ005>011-220600-
OAHU-

CITY           SKY/WX    TMP DP  RH WIND       PRES   REMARKS
HONOLULU       MOCLDY    82  68  62 NE13      29.99R
KALAELOA       PTCLDY    81  68  64 E7        30.00R
KANEOHE MCB    MOCLDY    79  71  77 E6        30.01R
WHEELER FIELD  CLOUDY    78  68  72 E6        30.02R
BELLOWS*         N/A    N/A N/A N/A NE16        N/A
KAHUKU*          N/A    N/A N/A N/A E9G17       N/A
WHEELER*       NOT AVBL
WAIANAE HARBOR NOT AVBL
DILLINGHAM*      N/A     81  68  65 NE5G16      N/A
KAHUKU TRN*      N/A     75  70  83 E9G18       N/A
KAWAILOA*      NOT AVBL
KII*             N/A     81  72  74 E14         N/A
MAKUA RANGE*     N/A     81  68  65 E3G12       N/A
OAHU FOREST NW   N/A     70  70 100 N18G32      N/A
SCHOFIELD BRK*   N/A     75  66  73 MISG        N/A
SCHOFIELD S*   NOT AVBL
WAIANAE VLY*     N/A     77  68  73 E2G21       N/A
KUAOKALA*        N/A     75  66  73 CALM        N/A
HONOULIUULI*   NOT AVBL
MOKUOLOE IS*     N/A    N/A N/A N/A MISG        N/A
PALEHUA*         N/A     82  72  69 CALM        N/A
WAIAWA PHB*    NOT AVBL
$$

HIZ012>013-220600-
MOLOKAI-

CITY           SKY/WX    TMP DP  RH WIND       PRES   REMARKS
MOLOKAI AIRPT  CLEAR     78  72  81 NE12G20   30.00R
KALAUPAPA      NOT AVBL
MAKAPULAPAI*     N/A     79  72  78 E20G31      N/A
MOLOKAI 1*       N/A     70  64  83 E6G26       N/A
PUU ALII*        N/A     62  62  98 E3G12       N/A
$$

HIZ016-220600-
KAHOOLAWE-

CITY           SKY/WX    TMP DP  RH WIND       PRES   REMARKS
KAHOOLAWE*       N/A     73 N/A N/A E15G23      N/A
HAKIOAWA*      NOT AVBL
HONOKANAIA*      N/A     79  70  73 NE17G26   29.98R
KANELOA*         N/A     77  72  83 E17G28    30.08R
KEALIALALO*    NOT AVBL
LUA MAKIKA*    NOT AVBL
$$

HIZ014>015-220600-
LANAI-

CITY           SKY/WX    TMP DP  RH WIND       PRES   REMARKS
LANAI CITY     FAIR      75  68  79 NE13      30.04R
LANAI 1*         N/A     72  72 100 NE24G38     N/A
$$

HIZ017>028-220600-
MAUI-

CITY           SKY/WX    TMP DP  RH WIND       PRES   REMARKS
KAHULUI        PTCLDY    80  70  71 NE20G29   29.98R
KAPALUA-W MAUI NOT AVBL
HANA AIRPORT   CLOUDY    77  70  78 E6        30.05R
HANA*            N/A     79 N/A N/A E5          N/A
HALEAKALA SUMM   N/A     48  32  53 E12         N/A
MAALAEA BAY*   NOT AVBL
HALEAKALA*     NOT AVBL
KAUPO GAP*       N/A     66  66 100 CALM        N/A
KULA 1*          N/A     59  55  88 NW2         N/A
$$

HIZ023>026-220600-
BIG ISLAND OF HAWAII COAST AND LOWER SLOPES-

CITY           SKY/WX    TMP DP  RH WIND       PRES   REMARKS
KAILUA KONA    CLEAR     83  72  69 SE13      29.93R
HILO           PTCLDY    79  70  74 N5        30.00R
HONOKAA*       NOT AVBL
KAWAIHAE MWT*    N/A     84 N/A N/A SW7         N/A
KAWAIHAE*        N/A     82 N/A N/A CALM        N/A
SOUTH POINT*     N/A     73 N/A N/A NE16        N/A
UPOLU AIRPORT*   N/A    N/A N/A N/A E18G26      N/A
KAMUELA*       MOCLDY    66  64  94 NE22      30.10R
HAKALAU*         N/A     55  54  96 W1          N/A
KALOKO-HONOKO*   N/A     81  73  78 SE5       29.94R
PALI 2*          N/A     70  63  78 N16G26      N/A
KEALAKOMO*       N/A     82  70  65 NE16G26     N/A
KAUPULEHU*       N/A     75  59  57 NE13G18     N/A
KAPAPALA*        N/A     71  68  90 CALM        N/A
LOWER KAHUKU*  NOT AVBL
PUHE CS*       NOT AVBL
PUHO CS*         N/A     80  73  77 S2          N/A
PTA KEAMUKU*     N/A     68  59  73 E17G28      N/A
WAIKOLOA*        N/A     75  63  64 E12G18      N/A
$$

HIZ027>028-220600-
BIG ISLAND OF HAWAII INTERIOR AND SUMMMITS-

CITY           SKY/WX    TMP DP  RH WIND       PRES   REMARKS
BRADSHAW FIELD PTCLDY    63  56  79 SW5       30.35R
MK VISITOR CEN NOT AVBL
MAUNA KEA*       N/A     36  -9  14 SE18        N/A  WCI  25
MAUNA LOA*       N/A    N/A N/A N/A MISG        N/A
MAUNA LOA 1*     N/A    N/A N/A N/A MISG        N/A
PTA KIPUKA*      N/A     63  59  88 NW2G12      N/A
PTA RANGE 17*    N/A     63  59  88 SW3G12      N/A
PTA WEST*        N/A     66  61  82 SW6G14      N/A
NENE CABIN*    NOT AVBL
AHUMOA*          N/A     57  53  85 SE3         N/A
PTA PORTABLE*  NOT AVBL
PUU MALI*      NOT AVBL
$$

HIC003-220600-
NORTHWEST ISLANDS-

CITY           SKY/WX    TMP DP  RH WIND       PRES   REMARKS
MIDWAY ISLAND  SUNNY     86  73  66 SW12      29.97R HX  93
MIDWAY NOS*    NOT AVBL
FRENCH FRIGATE NOT AVBL
$$

PHZ110>124-180-220600-
BUOY REPORTS

STATION/POSITION TIME  TEMP    WIND        PRES    WAVE   SWELL
                       AIR SEA DIR/SP/G            HT/PER HT/DIR
                 (UTC) (F)     (DEG/KT/KT) (MB)    (FT/S) (FT/D)
BUOY 51001       NOT AVBL
BUOY 51101       NOT AVBL
BUOY 51100       0500   78 79   50/ 16/ 17 1016.9R
BUOY 51003       0500   81 82   60/ 14/ 17 1014.2R   5/15   3
BUOY 51004       0407   79 80   50/ 16/ 19 1013.4R   6/ 9   3/100
BARBERS PT BUOY  NOT AVBL
WAIMEA BAY BUOY  0500      81                N/A     3/ 7   2/250
KAILUA BAY BUOY  0500      81                N/A     5/ 7   2/140
LANAI BUOY       NOT AVBL
BARBERS PT 2     0500      82                N/A     4/15   3/200
PAUWELA MAUI     0500      80                N/A     6/ 8   2/100
HILO             NOT AVBL
KANEOHE BAY BUOY 0500      80                N/A     4/ 8   2/ 70
HANALEI KAUAI    NOT AVBL
KAHULUI HARBOR   0500   78 81   30/ 13/ 17 1015.7R
HONOLULU HARBOR  0500   81      40/  3/  7 1015.9R
KILO NALU        NOT AVBL
HILO HARBOR      0500   79      30/  8/ 11 1015.7R
MOKUOLOE         0500   80 82   70/  8/ 10 1016.4R
NAWILIWILI       0500      83                N/A
WHOTS BUOY       NOT AVBL
BUOY 51028       NOT AVBL
$$

......................KEY........................................
  SKY/WX - SKY CONDITIONS/PRESENT WEATHER
  TMP    - TEMPERATURE IN FAHRENHEIT
  DWPT   - DEWPOINT IN FAHRENHEIT
  RH     - RELATIVE HUMIDITY IN PERCENT
  WIND   - DIRECTION AND SPEED /MPH FOR ISLANDS...KTS FOR BUOYS/
  PRES   - MEAN SEA LEVEL PRESSURE IN INCHES OF HG
  VSB    - VISIBILITY IN MILES
  HX     - HEAT INDEX
  WCI    - WIND CHILL INDEX
  VRB    - VARIABLE WIND DIRECTION
  N/A    - NOT AVAILABLE


USA.gov is the U.S. government's official web portal to all federal, state and local government web resources and services.